Regional Weather Roundup
Issued by NWS

Home | Current Version | Previous Version | Graphics & Text | Print | Product List | Glossary On
Versions: 1 2 3 4 5 6 7 8 9 10 11 12 13 14 15 16 17 18 19 20 21 22 23 24 25 26 27 28 29 30 31 32 33 34 35 36 37 38 39 40 41 42 43 44 45 46 47 48 49 50
000
ASUS43 KIND 310509
RWRIN

WEATHER ROUNDUP FOR INDIANA
NATIONAL WEATHER SERVICE INDIANAPOLIS IN
1200 AM EST SAT JAN 31 2015

NOTE: "FAIR" INDICATES FEW OR NO CLOUDS BELOW 12,000 FEET WITH NO
SIGNIFICANT WEATHER AND/OR OBSTRUCTIONS TO VISIBILITY.

* - STATION DOES NOT REPORT WEATHER SUCH AS PRECIPITATION OR FOG.

+ - STATION NOT QUALITY CONTROLLED BY THE NATIONAL WEATHER SERVICE.
    USE DATA WITH CAUTION...ESPECIALLY DEWPOINT AND RELATIVE
    HUMIDITY OBSERVATIONS.

INZ001>003-010>013-019-020-310600-
NORTHWEST INDIANA

CITY           SKY/WX    TMP DP  RH WIND       PRES   REMARKS
GARY /AIRPORT/ CLEAR     19  13  75 CALM      30.39F
KNOX *+        CLEAR     19   7  58 S5        30.39S WCI  13
LA PORTE +     CLOUDY    20  15  80 SW5       30.38F WCI  14
MICHIGAN CITY+ CLEAR     19  10  68 CALM      30.39S
MONTICELLO +   CLEAR     21  18  88 S5        30.40F WCI  15
RENSSELAER +   CLEAR     23  21  93 CALM      30.39F
VALPARAISO     CLEAR     19  14  81 S5        30.38F WCI  12

$$

LMZ046-743>745-310600-
SOUTHERN LAKE MICHIGAN

STATION/POSITION TIME  TEMP WIND        PRES
                       AIR  DIR/SP/G
                 (UTC) (F)  (DEG/KT/KT) (MB)
MICHIGAN CITY    0500   23  160/  8/ 10   N/A

$$

INZ004-005-014>016-021>024-310600-
NORTH CENTRAL INDIANA

CITY           SKY/WX    TMP DP  RH WIND       PRES   REMARKS
GOSHEN         CLEAR     18  13  80 S5        30.38F WCI  11
LOGANSPORT +   CLEAR     19  19 100 S5        30.41F WCI  13
PERU/GRISSOM   CLEAR     18  15  88 S5        30.39F WCI  11
ROCHESTER +    CLEAR     21  19  93 S3        30.39F
SOUTH BEND     CLEAR     19  13  77 S3        30.38F
WARSAW +       MOCLDY    19  16  86 CALM      30.38F

$$

INZ006>009-017-018-025>027-310600-
NORTHEAST INDIANA

CITY           SKY/WX    TMP DP  RH WIND       PRES   REMARKS
ANGOLA *+      CLEAR     12  10  92 CALM      30.37F
AUBURN +       CLEAR     18  12  79 CALM      30.39F
FORT WAYNE     PTCLDY    18  13  80 S6        30.40F WCI  10
HUNTINGTON +   PTCLDY    16  12  83 S3        30.40S

$$

INZ028-029-035-036-043>045-051>053-310600-
WEST CENTRAL INDIANA

CITY           SKY/WX    TMP DP  RH WIND       PRES   REMARKS
GREENCASTLE +  CLEAR     21  14  73 CALM      30.41F
LAFAYETTE      CLEAR     19  17  92 CALM      30.41F
TERRE HAUTE    CLEAR     22  17  81 CALM      30.43F

$$

INZ030>032-037>040-046>048-054>057-064-065-310600-
CENTRAL INDIANA

CITY           SKY/WX    TMP DP  RH WIND       PRES   REMARKS
CP ATTERBURY + CLEAR     19  18  93 CALM      30.43F
FRANKFORT +    CLEAR     17  15  92 CALM      30.42S
GREENWOOD *+   CLEAR     23  14  68 CALM      30.42F
INDIANAPOLIS   CLEAR     21  15  78 SE3       30.41F
-EAGLE CREEK   CLEAR     20  16  84 CALM      30.40F
KOKOMO *+      CLEAR     19  16  86 S3        30.40F
MARION +       PTCLDY    20  17  86 S3        30.41S
MT COMFORT *+  CLEAR     19  16  86 CALM      30.42S
SHELBYVILLE    CLEAR     23  17  78 CALM      30.41F
ZIONSVILLE +   CLEAR     19  15  86 CALM      30.41F

$$

INZ033-034-041-042-049-050-058-059-310600-
EAST CENTRAL INDIANA

CITY           SKY/WX    TMP DP  RH WIND       PRES   REMARKS
MUNCIE         PTCLDY    20  15  81 S3        30.41S

$$

INZ060-061-067>069-081>083-085>088-310600-
SOUTHWEST INDIANA

CITY           SKY/WX    TMP DP  RH WIND       PRES   REMARKS
EVANSVILLE     CLEAR     27  20  75 CALM      30.45F
HUNTINGBURG *+ CLEAR     25  18  74 SE3       30.45S
WASHINGTON +   CLEAR     23  18  80 CALM      30.44F

$$

INZ062-063-066-070>080-084-089>092-310600-
SOUTH CENTRAL AND SOUTHEAST INDIANA

CITY           SKY/WX    TMP DP  RH WIND       PRES   REMARKS
BLOOMINGTON    CLEAR     20  16  84 CALM      30.41F
NORTH VERNON + CLEAR     21  19  93 CALM      30.42F
SEYMOUR +      CLEAR     21  18  86 CALM      30.44F

$$




USA.gov is the U.S. government's official web portal to all federal, state and local government web resources and services.